TimeEDT,TemperatureF,Dew PointF,Humidity,Sea Level PressureIn,VisibilityMPH,Wind Direction,Wind SpeedMPH,Gust SpeedMPH,PrecipitationIn,Events,Conditions,WindDirDegrees,DateUTC
12:15 AM,78.1,72.7,83,30.06,10.0,SSW,8.1,-,N/A,,Clear,200,2013-07-20 04:15:00
12:35 AM,78.1,72.7,83,30.06,10.0,SSW,6.9,-,N/A,,Clear,210,2013-07-20 04:35:00
12:55 AM,78.1,72.7,83,30.05,10.0,SSW,6.9,-,N/A,,Clear,210,2013-07-20 04:55:00
1:15 AM,78.1,72.7,83,30.05,10.0,SSW,8.1,-,N/A,,Clear,200,2013-07-20 05:15:00
1:35 AM,78.1,72.7,83,30.05,10.0,SSW,8.1,-,N/A,,Clear,200,2013-07-20 05:35:00
1:55 AM,78.1,72.7,83,30.04,10.0,SSW,9.2,-,N/A,,Clear,210,2013-07-20 05:55:00
2:15 AM,78.1,72.7,83,30.03,10.0,SSW,8.1,-,N/A,,Clear,200,2013-07-20 06:15:00
2:35 AM,78.1,72.7,83,30.03,10.0,SSW,9.2,-,N/A,,Clear,210,2013-07-20 06:35:00
2:55 AM,78.1,72.7,83,30.03,10.0,SSW,9.2,-,N/A,,Clear,210,2013-07-20 06:55:00
3:15 AM,78.1,72.7,83,30.04,10.0,SW,6.9,-,N/A,,Scattered Clouds,220,2013-07-20 07:15:00
3:35 AM,78.1,72.7,83,30.04,10.0,SSW,4.6,-,N/A,,Scattered Clouds,210,2013-07-20 07:35:00
3:55 AM,78.1,72.7,83,30.05,10.0,SSW,8.1,-,N/A,,Clear,210,2013-07-20 07:55:00
4:15 AM,78.1,72.7,83,30.04,10.0,SSW,5.8,-,N/A,,Clear,200,2013-07-20 08:15:00
4:35 AM,78.1,72.7,83,30.04,10.0,SSW,5.8,-,N/A,,Clear,210,2013-07-20 08:35:00
4:55 AM,78.1,72.7,83,30.04,10.0,SSW,8.1,-,N/A,,Clear,210,2013-07-20 08:55:00
5:15 AM,78.1,72.7,83,30.04,10.0,SW,9.2,16.1,N/A,,Clear,230,2013-07-20 09:15:00
5:35 AM,78.1,72.7,83,30.04,10.0,SW,9.2,-,N/A,,Clear,220,2013-07-20 09:35:00
5:55 AM,78.1,72.7,83,30.04,10.0,SW,10.4,-,N/A,,Clear,220,2013-07-20 09:55:00
6:15 AM,78.1,72.7,83,30.03,10.0,SW,8.1,-,N/A,,Clear,220,2013-07-20 10:15:00
6:35 AM,78.1,72.7,83,30.04,10.0,SW,5.8,-,N/A,,Clear,220,2013-07-20 10:35:00
6:55 AM,78.1,72.7,83,30.05,10.0,SSW,6.9,-,N/A,,Clear,210,2013-07-20 10:55:00
7:15 AM,78.1,72.7,83,30.05,10.0,SW,9.2,-,N/A,,Clear,230,2013-07-20 11:15:00
7:35 AM,78.1,72.7,83,30.06,10.0,SW,11.5,-,N/A,,Clear,230,2013-07-20 11:35:00
7:55 AM,78.1,72.7,83,30.06,10.0,SW,9.2,-,N/A,,Scattered Clouds,230,2013-07-20 11:55:00
8:15 AM,78.1,72.7,83,30.06,10.0,WSW,12.7,17.3,N/A,,Mostly Cloudy,240,2013-07-20 12:15:00
8:35 AM,78.3,72.9,83,30.06,10.0,WSW,12.7,17.3,N/A,,Scattered Clouds,240,2013-07-20 12:35:00
8:55 AM,80.8,74.8,82,30.05,10.0,SW,11.5,-,N/A,,Scattered Clouds,220,2013-07-20 12:55:00
9:15 AM,80.8,74.1,80,30.05,10.0,SW,15.0,20.7,N/A,,Scattered Clouds,230,2013-07-20 13:15:00
9:35 AM,80.8,73.8,79,30.04,10.0,SW,12.7,18.4,N/A,,Scattered Clouds,230,2013-07-20 13:35:00
9:55 AM,83.3,75.6,77,30.04,10.0,WSW,11.5,19.6,N/A,,Scattered Clouds,240,2013-07-20 13:55:00
10:15 AM,83.3,75.2,76,30.05,10.0,WSW,11.5,19.6,N/A,,Scattered Clouds,240,2013-07-20 14:15:00
10:35 AM,83.3,74.7,75,30.05,10.0,SW,13.8,20.7,N/A,,Scattered Clouds,230,2013-07-20 14:35:00
10:55 AM,84.6,74.8,72,30.05,10.0,SW,16.1,20.7,N/A,,Scattered Clouds,220,2013-07-20 14:55:00
11:15 AM,85.5,74.7,70,30.05,10.0,SW,17.3,-,N/A,,Clear,230,2013-07-20 15:15:00
11:35 AM,86.0,74.3,68,30.04,10.0,SW,16.1,20.7,N/A,,Clear,230,2013-07-20 15:35:00
11:55 AM,86.0,74.5,68,30.04,10.0,WSW,11.5,19.6,N/A,,Clear,240,2013-07-20 15:55:00
12:15 PM,86.7,75.0,68,30.04,10.0,SW,13.8,20.7,N/A,,Clear,220,2013-07-20 16:15:00
12:35 PM,86.0,73.8,67,30.03,10.0,SW,11.5,21.9,N/A,,Scattered Clouds,220,2013-07-20 16:35:00
12:55 PM,86.4,74.3,67,30.03,10.0,SSW,13.8,18.4,N/A,,Scattered Clouds,210,2013-07-20 16:55:00
1:15 PM,87.3,74.1,65,30.02,10.0,SW,15.0,20.7,N/A,,Clear,230,2013-07-20 17:15:00
1:35 PM,87.6,73.9,64,30.02,10.0,SW,13.8,19.6,N/A,,Clear,230,2013-07-20 17:35:00
1:55 PM,88.2,74.3,63,30.01,10.0,SW,11.5,18.4,N/A,,Clear,220,2013-07-20 17:55:00
2:15 PM,90.0,75.0,61,29.99,10.0,SW,10.4,17.3,N/A,,Clear,230,2013-07-20 18:15:00
2:35 PM,89.6,74.1,60,29.98,10.0,SW,12.7,-,N/A,,Scattered Clouds,230,2013-07-20 18:35:00
2:55 PM,89.4,73.0,58,29.98,10.0,WSW,11.5,-,N/A,,Clear,240,2013-07-20 18:55:00
3:15 PM,90.9,73.2,56,29.98,10.0,SW,12.7,17.3,N/A,,Scattered Clouds,220,2013-07-20 19:15:00
3:35 PM,93.4,73.8,53,29.97,10.0,SW,13.8,-,N/A,,Clear,220,2013-07-20 19:35:00
3:55 PM,90.9,72.3,54,29.96,10.0,SW,12.7,-,N/A,,Scattered Clouds,230,2013-07-20 19:55:00
4:15 PM,93.4,73.9,53,29.95,10.0,SSW,9.2,17.3,N/A,,Scattered Clouds,210,2013-07-20 20:15:00
4:35 PM,93.4,73.8,53,29.95,10.0,SSW,10.4,-,N/A,,Scattered Clouds,210,2013-07-20 20:35:00
4:55 PM,90.9,72.3,54,29.95,10.0,SSW,9.2,-,N/A,,Scattered Clouds,210,2013-07-20 20:55:00
5:15 PM,88.7,70.7,55,29.95,10.0,SSW,10.4,18.4,N/A,,Scattered Clouds,200,2013-07-20 21:15:00
5:35 PM,87.1,73.2,63,29.95,10.0,SSW,10.4,17.3,N/A,,Mostly Cloudy,200,2013-07-20 21:35:00
5:55 PM,86.9,74.5,66,29.95,10.0,South,10.4,17.3,N/A,,Scattered Clouds,180,2013-07-20 21:55:00
6:15 PM,86.0,74.7,69,29.95,10.0,South,12.7,-,N/A,,Clear,180,2013-07-20 22:15:00
6:35 PM,86.0,75.0,70,29.95,10.0,South,10.4,16.1,N/A,,Clear,190,2013-07-20 22:35:00
6:55 PM,84.7,73.9,70,29.95,10.0,South,10.4,-,N/A,,Clear,190,2013-07-20 22:55:00
7:15 PM,84.6,74.5,72,29.96,10.0,South,12.7,20.7,N/A,,Clear,190,2013-07-20 23:15:00
7:35 PM,84.2,73.9,71,29.97,10.0,South,10.4,-,N/A,,Clear,170,2013-07-20 23:35:00
7:55 PM,83.3,74.1,74,29.98,10.0,SSW,10.4,-,N/A,,Clear,200,2013-07-20 23:55:00
8:15 PM,83.3,74.7,75,29.98,10.0,South,9.2,-,N/A,,Clear,190,2013-07-21 00:15:00
8:35 PM,83.3,75.2,76,29.99,10.0,South,9.2,16.1,N/A,,Clear,190,2013-07-21 00:35:00
8:55 PM,81.1,73.6,78,29.99,10.0,South,8.1,-,N/A,,Clear,190,2013-07-21 00:55:00
9:15 PM,80.8,73.8,79,29.99,10.0,SSW,9.2,-,N/A,,Clear,200,2013-07-21 01:15:00
9:35 PM,80.8,74.3,81,29.99,10.0,South,6.9,-,N/A,,Clear,190,2013-07-21 01:35:00
9:55 PM,80.8,73.4,78,30.01,10.0,SSW,8.1,-,N/A,,Clear,200,2013-07-21 01:55:00
10:15 PM,80.8,73.4,78,30.01,10.0,SSW,9.2,-,N/A,,Clear,200,2013-07-21 02:15:00
10:35 PM,80.8,73.4,78,30.01,10.0,SSW,9.2,-,N/A,,Clear,200,2013-07-21 02:35:00
10:55 PM,80.8,73.4,78,30.01,10.0,SSW,10.4,17.3,N/A,,Clear,210,2013-07-21 02:55:00
11:15 PM,79.3,72.1,79,30.01,10.0,SW,10.4,-,N/A,,Clear,220,2013-07-21 03:15:00
11:35 PM,78.4,71.4,79,30.02,10.0,SW,10.4,-,N/A,,Clear,220,2013-07-21 03:35:00
11:55 PM,78.1,71.2,79,30.02,10.0,SSW,8.1,-,N/A,,Clear,210,2013-07-21 03:55:00